GW6925 Weather Reports


time (UTC)temp
C
wind
direction
speed
KPH
gust
KPH
rain 1hr
cm
rain 24hr
cm
rain mn
cm
humidity
%
barometer
mb
20260502215213 9 161 0.0 0.0 0.00 0.00 0.00 85 1010.6
20260502214509 8 315 0.0 3.2 0.20 0.25 0.25 92 1010.0
20260502214155 9 161 0.0 0.0 0.00 0.00 0.00 85 1010.7
20260502213647 9 161 0.0 0.0 0.00 0.00 0.00 84 1010.7
20260502213128 9 161 0.0 0.0 0.00 0.00 0.00 84 1010.7
20260502213016 8 319 0.0 3.2 0.15 0.20 0.20 91 1010.1
20260502212627 9 161 0.0 0.0 0.00 0.00 0.00 84 1010.5
20260502211518 8 319 0.0 1.6 0.10 0.15 0.15 90 1010.0
20260502211102 9 161 0.0 0.0 0.00 0.00 0.00 81 1010.5
20260502210535 9 161 0.0 3.2 0.00 0.00 0.00 81 1010.5
20260502210034 9 161 0.0 3.2 0.00 0.00 0.00 80 1010.5
20260502210029 8 311 1.6 4.8 0.03 0.08 0.08 88 1010.0
20260502205527 9 161 0.0 3.2 0.00 0.00 0.00 80 1010.5
20260502205025 9 161 1.6 9.7 0.00 0.00 0.00 79 1010.5
20260502204526 9 332 1.6 6.4 0.00 0.05 0.05 85 1010.0
20260502204521 10 161 3.2 9.7 0.00 0.00 0.00 77 1010.5
20260502204019 10 130 3.2 9.7 0.00 0.00 0.00 74 1010.3
20260502203519 11 137 3.2 12.9 0.00 0.00 0.00 72 1010.3
20260502203019 12 116 3.2 12.9 0.00 0.00 0.00 68 1010.3
20260502203014 11 352 3.2 11.3 0.00 0.05 0.05 74 1009.8
20260502202514 12 49 1.6 9.7 0.00 0.00 0.00 62 1010.0
20260502202002 12 318 3.2 9.7 0.00 0.00 0.00 61 1010.0
20260502201519 12 188 1.6 8.0 0.00 0.05 0.05 69 1009.6
20260502201500 12 41 4.8 16.1 0.00 0.00 0.00 61 1010.0
20260502201000 12 284 4.8 16.1 0.00 0.00 0.00 60 1010.1
20260502200454 13 330 4.8 12.9 0.00 0.00 0.00 60 1010.1
20260502200020 12 184 3.2 16.1 0.00 0.05 0.05 67 1009.8
20260502195948 13 349 6.4 20.9 0.00 0.00 0.00 58 1010.1
20260502195441 13 343 8.0 20.9 0.00 0.00 0.00 58 1009.9
20260502194940 13 299 8.0 16.1 0.00 0.00 0.00 56 1009.9
20260502194531 13 202 4.8 12.9 0.00 0.05 0.05 66 1009.6
20260502193925 12 0 9.7 20.9 0.00 0.00 0.00 60 1010.5
20260502193422 12 319 9.7 20.9 0.00 0.00 0.00 57 1010.5
20260502193026 12 141 8.0 17.7 0.00 0.05 0.05 64 1010.0
20260502192920 12 315 9.7 24.1 0.00 0.00 0.00 56 1010.5
20260502192418 12 328 11.3 24.1 0.00 0.00 0.00 55 1010.7
20260502191917 12 3 8.0 20.9 0.00 0.00 0.00 59 1010.7
20260502191516 12 147 6.4 17.7 0.00 0.05 0.05 65 1010.2
20260502190911 12 0 6.4 17.7 0.00 0.00 0.00 57 1010.9
20260502190033 12 161 8.0 16.1 0.00 0.05 0.05 63 1010.4
20260502185911 12 258 8.0 20.9 0.00 0.00 0.00 56 1010.9
20260502185408 12 352 9.7 20.9 0.00 0.00 0.00 55 1010.8
20260502184907 12 306 8.0 20.9 0.00 0.00 0.00 54 1010.8
20260502184525 12 25 8.0 20.9 0.00 0.05 0.05 62 1010.4
20260502184408 12 3 8.0 25.7 0.00 0.00 0.00 54 1010.8
20260502183907 12 336 9.7 25.7 0.00 0.00 0.00 52 1010.9
20260502183400 12 346 8.0 20.9 0.00 0.00 0.00 52 1010.9
20260502183026 12 226 8.0 16.1 0.00 0.05 0.05 60 1010.4
20260502182857 12 344 6.4 17.7 0.00 0.00 0.00 55 1010.9
20260502181850 12 292 8.0 17.7 0.00 0.00 0.00 54 1010.9
20260502181530 12 206 4.8 14.5 0.00 0.05 0.05 61 1010.3
20260502181349 12 0 9.7 20.9 0.00 0.00 0.00 56 1010.9
20260502180845 11 25 9.7 20.9 0.00 0.00 0.00 54 1011.2
20260502180342 12 346 9.7 17.7 0.00 0.00 0.00 60 1011.2
20260502170321 11 312 3.2 12.9 0.00 0.00 0.00 71 1011.6
20260502164309 11 10 1.6 9.7 0.00 0.00 0.00 65 1011.7
20260502163306 11 17 1.6 11.3 0.00 0.00 0.00 65 1011.7
20260502163037 11 181 1.6 9.7 0.00 0.03 0.03 73 1011.1
20260502162800 11 309 3.2 11.3 0.00 0.00 0.00 62 1011.8
20260502162241 11 320 4.8 12.9 0.00 0.00 0.00 62 1011.8
20260502161737 11 8 4.8 16.1 0.00 0.00 0.00 60 1011.8
20260502161526 11 179 3.2 9.7 0.00 0.03 0.03 70 1011.2
20260502161236 11 0 6.4 16.1 0.00 0.00 0.00 59 1011.7
20260502160722 11 309 6.4 12.9 0.00 0.00 0.00 58 1011.7
20260502160223 11 40 6.4 16.1 0.00 0.00 0.00 55 1011.7
20260502152156 11 52 3.2 12.9 0.00 0.00 0.00 64 1011.9
20260502151656 11 0 1.6 9.7 0.00 0.00 0.00 73 1011.9
20260502151511 11 143 0.0 6.4 0.00 0.03 0.03 82 1011.2
20260502151156 11 313 0.0 3.2 0.00 0.00 0.00 77 1012.2
20260502150638 10 313 0.0 3.2 0.00 0.00 0.00 78 1012.2
20260502150133 10 313 1.6 9.7 0.00 0.00 0.00 74 1012.2
20260502130322 8 68 0.0 0.0 0.00 0.00 0.00 80 1012.8
20260502123650 9 68 0.0 3.2 0.00 0.00 0.00 78 1012.9
20260502123130 9 68 1.6 3.2 0.00 0.00 0.00 75 1012.9
20260502123027 9 360 1.6 8.0 0.00 0.00 0.00 82 1012.3
20260502122630 9 55 1.6 12.9 0.00 0.00 0.00 74 1013.1
20260502122128 9 64 3.2 12.9 0.00 0.00 0.00 74 1013.1
20260502121618 9 69 1.6 9.7 0.00 0.00 0.00 75 1013.1
20260502121520 9 257 3.2 4.8 0.00 0.00 0.00 82 1012.6
20260502115510 8 42 1.6 9.7 0.00 0.00 0.00 75 1012.3
20260502115006 8 42 0.0 3.2 0.00 0.00 0.00 76 1012.3
20260502114510 8 360 0.0 6.4 0.00 0.00 0.00 83 1011.7
20260502113956 8 44 0.0 6.4 0.00 0.00 0.00 78 1012.4
20260502113439 8 61 0.0 3.2 0.00 0.00 0.00 79 1012.4
20260502113012 8 154 1.6 6.4 0.00 0.00 0.00 89 1011.8
20260502112936 8 40 0.0 3.2 0.00 0.00 0.00 81 1012.4
20260502112432 8 40 0.0 1.6 0.00 0.00 0.00 84 1011.8
20260502111916 7 40 0.0 0.0 0.00 0.00 0.00 84 1011.8
20260502111517 7 249 0.0 0.0 0.00 0.00 0.00 91 1011.2
20260502111408 7 40 0.0 0.0 0.00 0.00 0.00 84 1011.8
20260502110904 7 40 0.0 0.0 0.00 0.00 0.00 84 1012.1
20260502110329 7 40 0.0 0.0 0.00 0.00 0.00 84 1012.1
20260502110024 7 249 0.0 0.0 0.00 0.00 0.00 92 1011.4
20260502105821 7 40 0.0 1.6 0.00 0.00 0.00 84 1012.1
20260502105315 7 40 0.0 1.6 0.00 0.00 0.00 84 1012.1
20260502104811 7 40 0.0 0.0 0.00 0.00 0.00 84 1012.1
20260502104531 7 249 0.0 0.0 0.00 0.00 0.00 92 1011.4
20260502103247 7 40 0.0 0.0 0.00 0.00 0.00 84 1011.9
20260502103012 6 249 0.0 0.0 0.00 0.00 0.00 92 1011.3
20260502102730 7 40 0.0 0.0 0.00 0.00 0.00 83 1011.8
20260502102220 6 40 0.0 0.0 0.00 0.00 0.00 84 1011.8
20260502101516 6 249 0.0 0.0 0.00 0.00 0.00 92 1011.2
20260502091518 6 248 0.0 3.2 0.00 0.00 0.00 91 1010.9
20260502091308 6 40 0.0 0.0 0.00 0.00 0.00 82 1011.4
20260502090754 6 40 0.0 1.6 0.00 0.00 0.00 82 1011.4
20260502090248 6 40 0.0 1.6 0.00 0.00 0.00 82 1011.4
20260502071527 7 252 0.0 0.0 0.00 0.00 0.00 81 1010.9
20260502071153 8 40 0.0 3.2 0.00 0.00 0.00 66 1011.5
20260502070633 8 40 0.0 3.2 0.00 0.00 0.00 67 1011.5
20260502070026 7 239 0.0 3.2 0.00 0.00 0.00 80 1011.0
20260502065630 8 38 0.0 3.2 0.00 0.00 0.00 67 1011.6
20260502064517 8 230 0.0 3.2 0.00 0.00 0.00 80 1011.0
20260502064006 8 48 0.0 3.2 0.00 0.00 0.00 68 1011.8
20260502063501 8 48 0.0 3.2 0.00 0.00 0.00 68 1011.8
20260502063026 7 315 0.0 1.6 0.00 0.00 0.00 83 1011.2
20260502062938 8 48 0.0 0.0 0.00 0.00 0.00 68 1011.8
20260502062435 8 48 0.0 0.0 0.00 0.00 0.00 69 1011.8
20260502061923 8 48 0.0 0.0 0.00 0.00 0.00 69 1011.8
20260502061507 7 315 0.0 0.0 0.00 0.00 0.00 83 1011.3
20260502061347 8 48 0.0 0.0 0.00 0.00 0.00 70 1011.8
20260502060828 7 48 0.0 0.0 0.00 0.00 0.00 69 1011.9
20260502060318 7 48 0.0 0.0 0.00 0.00 0.00 69 1011.9
20260502060010 6 315 0.0 0.0 0.00 0.00 0.00 84 1011.3
20260502055805 7 48 0.0 0.0 0.00 0.00 0.00 69 1011.9
20260502055253 7 48 0.0 0.0 0.00 0.00 0.00 69 1011.9
20260502054753 7 48 0.0 0.0 0.00 0.00 0.00 69 1011.9
20260502054519 6 315 0.0 3.2 0.00 0.00 0.00 83 1011.3
20260502054235 7 48 0.0 0.0 0.00 0.00 0.00 70 1011.9
20260502053714 7 48 0.0 0.0 0.00 0.00 0.00 70 1011.9
20260502053146 7 48 0.0 0.0 0.00 0.00 0.00 70 1011.9
20260502053022 6 315 0.0 0.0 0.00 0.00 0.00 83 1011.3
20260502052132 7 48 0.0 0.0 0.00 0.00 0.00 70 1012.1
20260502051627 7 48 0.0 0.0 0.00 0.00 0.00 70 1012.1
20260502051508 6 315 0.0 3.2 0.00 0.00 0.00 83 1011.6
20260502051107 7 48 0.0 0.0 0.00 0.00 0.00 70 1012.1
20260502050602 7 48 0.0 0.0 0.00 0.00 0.00 70 1012.1
20260502050035 7 48 0.0 0.0 0.00 0.00 0.00 70 1012.1
20260502050008 6 315 0.0 0.0 0.00 0.00 0.00 82 1011.5
20260502045529 7 48 0.0 0.0 0.00 0.00 0.00 69 1012.1
20260502045005 7 48 0.0 0.0 0.00 0.00 0.00 68 1012.1
20260502044517 6 315 0.0 0.0 0.00 0.00 0.00 82 1011.5
20260502044437 7 48 0.0 0.0 0.00 0.00 0.00 68 1012.1
20260502043403 7 48 0.0 0.0 0.00 0.00 0.00 68 1012.1
20260502043022 6 315 0.0 0.0 0.00 0.00 0.00 81 1011.6
20260502042851 7 48 0.0 0.0 0.00 0.00 0.00 67 1012.1
20260502042349 7 48 0.0 0.0 0.00 0.00 0.00 67 1012.2
20260502041829 7 48 0.0 0.0 0.00 0.00 0.00 67 1012.2
20260502041529 6 315 0.0 0.0 0.00 0.00 0.00 81 1011.6
20260502041317 7 48 0.0 0.0 0.00 0.00 0.00 66 1012.3
20260502040818 7 48 0.0 1.6 0.00 0.00 0.00 65 1012.3
20260502040310 7 48 0.0 3.2 0.00 0.00 0.00 65 1012.3
20260502040013 5 315 0.0 3.2 0.00 0.00 0.00 79 1011.7
20260502035805 7 48 0.0 3.2 0.00 0.00 0.00 64 1012.3
20260502035233 7 47 0.0 0.0 0.00 0.00 0.00 63 1012.3
20260502034707 7 47 0.0 0.0 0.00 0.00 0.00 62 1012.3
20260502034513 6 315 0.0 0.0 0.00 0.00 0.00 77 1011.6
20260502034201 7 47 0.0 0.0 0.00 0.00 0.00 62 1012.3
20260502033137 7 47 0.0 0.0 0.00 0.00 0.00 62 1012.3
20260502033024 6 315 0.0 0.0 0.00 0.00 0.00 77 1011.7
20260502032554 7 47 0.0 0.0 0.00 0.00 0.00 62 1012.4
20260502031533 7 47 0.0 0.0 0.00 0.00 0.00 62 1012.4
20260502031522 6 315 0.0 0.0 0.00 0.00 0.00 77 1011.8
20260502031027 7 47 0.0 0.0 0.00 0.00 0.00 61 1012.4
20260502030026 6 315 0.0 0.0 0.00 0.00 0.00 75 1011.7
20260502030007 7 47 0.0 0.0 0.00 0.00 0.00 61 1012.4
20260502024913 6 47 0.0 0.0 0.00 0.00 0.00 62 1012.2
20260502024510 6 315 0.0 3.2 0.00 0.00 0.00 76 1011.5
20260502024338 6 47 0.0 0.0 0.00 0.00 0.00 63 1012.2
20260502023834 6 47 0.0 0.0 0.00 0.00 0.00 63 1012.3
20260502023320 6 47 0.0 0.0 0.00 0.00 0.00 63 1012.3
20260502023016 6 315 0.0 0.0 0.00 0.00 0.00 77 1011.7
20260502022814 6 47 0.0 0.0 0.00 0.00 0.00 64 1012.4
20260502022246 6 47 0.0 0.0 0.00 0.00 0.00 62 1012.4
20260502021729 6 47 0.0 0.0 0.00 0.00 0.00 62 1012.4
20260502021520 5 315 0.0 0.0 0.00 0.00 0.00 77 1011.6
20260502021225 6 47 0.0 0.0 0.00 0.00 0.00 62 1012.3
20260502020709 6 47 0.0 0.0 0.00 0.00 0.00 62 1012.3
20260502020203 6 47 0.0 0.0 0.00 0.00 0.00 64 1012.3
20260502020024 5 315 0.0 0.0 0.00 0.00 0.00 77 1011.5
20260502015651 6 47 0.0 0.0 0.00 0.00 0.00 64 1012.2
20260502015135 6 47 0.0 0.0 0.00 0.00 0.00 65 1012.2
20260502014629 6 47 0.0 0.0 0.00 0.00 0.00 64 1012.2
20260502014528 5 315 0.0 3.2 0.00 0.00 0.00 77 1011.4
20260502014125 6 47 0.0 0.0 0.00 0.00 0.00 62 1012.0
20260502013625 6 47 0.0 1.6 0.00 0.00 0.00 62 1012.0
20260502013119 6 47 0.0 1.6 0.00 0.00 0.00 62 1012.0
20260502013014 5 309 0.0 0.0 0.00 0.00 0.00 75 1011.3
20260502012620 7 47 0.0 0.0 0.00 0.00 0.00 58 1011.8
20260502012044 7 47 0.0 0.0 0.00 0.00 0.00 58 1011.8
20260502011517 6 309 0.0 0.0 0.00 0.00 0.00 71 1011.0
20260502010020 6 309 0.0 0.0 0.00 0.00 0.00 70 1010.9
20260502010013 8 47 0.0 0.0 0.00 0.00 0.00 52 1011.6
20260502005507 8 47 0.0 0.0 0.00 0.00 0.00 50 1011.4
20260502004957 8 47 0.0 0.0 0.00 0.00 0.00 49 1011.4
20260502004524 7 309 0.0 0.0 0.00 0.00 0.00 68 1010.7
20260502004445 8 47 0.0 0.0 0.00 0.00 0.00 46 1011.4
20260502003933 9 47 0.0 0.0 0.00 0.00 0.00 45 1011.2
20260502003425 9 47 0.0 0.0 0.00 0.00 0.00 45 1011.2
20260502003028 7 309 0.0 3.2 0.00 0.00 0.00 65 1010.5
20260502002329 10 47 0.0 0.0 0.00 0.00 0.00 44 1010.8
20260502001823 10 47 0.0 0.0 0.00 0.00 0.00 44 1010.8
20260502001512 8 309 0.0 0.0 0.00 0.00 0.00 64 1010.3
20260502000219 11 47 0.0 0.0 0.00 0.00 0.00 39 1010.6
20260502000020 9 309 0.0 0.0 0.00 0.00 0.00 55 1010.1
20260501235708 12 47 0.0 0.0 0.00 0.00 0.00 37 1010.5
20260501235207 12 47 0.0 0.0 0.00 0.00 0.00 35 1010.5
20260501234523 10 309 0.0 3.2 0.00 0.00 0.00 53 1009.9
20260501233612 13 44 0.0 1.6 0.00 0.00 0.00 31 1010.2
20260501233109 14 44 0.0 3.2 0.00 0.00 0.00 29 1010.2
20260501233024 12 309 0.0 3.2 0.00 0.00 0.00 47 1009.6
20260501232539 14 44 0.0 9.7 0.00 0.00 0.00 28 1009.9
20260501232036 15 44 0.0 9.7 0.00 0.00 0.00 28 1009.9
20260501231537 15 42 0.0 1.6 0.00 0.00 0.00 27 1009.9
20260501231526 13 296 0.0 3.2 0.00 0.00 0.00 43 1009.4
20260501231033 15 42 0.0 6.4 0.00 0.00 0.00 28 1009.8
20260501230529 15 42 3.2 12.9 0.00 0.00 0.00 27 1009.8
20260501230025 15 37 3.2 12.9 0.00 0.00 0.00 26 1009.8
20260501230016 15 279 3.2 12.9 0.00 0.00 0.00 32 1009.2
20260501225014 16 61 3.2 11.3 0.00 0.00 0.00 25 1009.7
20260501224521 16 304 3.2 9.7 0.00 0.00 0.00 32 1009.1
20260501224458 16 86 3.2 11.3 0.00 0.00 0.00 26 1009.7
20260501223953 16 69 1.6 12.9 0.00 0.00 0.00 25 1009.7
20260501223454 16 86 3.2 12.9 0.00 0.00 0.00 25 1009.7
20260501223022 16 341 3.2 12.9 0.00 0.00 0.00 31 1009.1
20260501222951 16 134 3.2 12.9 0.00 0.00 0.00 27 1009.7
20260501222452 16 90 4.8 12.9 0.00 0.00 0.00 25 1009.7
20260501221529 16 344 4.8 17.7 0.00 0.00 0.00 30 1009.2
20260501221444 16 123 3.2 11.3 0.00 0.00 0.00 24 1009.7
20260501220942 16 141 3.2 12.9 0.00 0.00 0.00 26 1009.5
20260501220438 16 147 4.8 14.5 0.00 0.00 0.00 24 1009.5
20260501220030 16 311 6.4 16.1 0.00 0.00 0.00 30 1009.0
20260501215936 16 93 4.8 14.5 0.00 0.00 0.00 23 1009.5
20260501215437 17 138 3.2 12.9 0.00 0.00 0.00 23 1009.5